Home   Weather   Cayenne   Past weeks
Flag for French Guiana

Past Weather in Cayenne, French Guiana — Yesterday and Last 2 Weeks

Now
75 °F

Passing clouds.


Feels Like: 74 °F
Forecast: 84 / 78 °F
Wind: No wind

Location: Cayenne / Rochambeau

Current Time: May 27, 2019 at 1:18:45 am

Latest Report: May 27, 2019 at 12:30 am


Visibility: N/A

Pressure: 29.89 "Hg

Humidity: 94%

Dew Point: 73 °F

Location of CayenneLocation

Past Weather in Cayenne — Graph

°F

Cayenne Temperature Yesterday

Maximum temperature yesterday: 90 °F (at 1:00 pm)
Minimum temperature yesterday: 73 °F (at 2:00 am)
Average temperature yesterday: 80 °F

High & Low Weather Summary for the Past Weeks

 TemperatureHumidityPressure
High90 °F (May 26, 1:00 pm)100% (May 12, 7:00 am)30.01 "Hg (May 12, 7:00 am)
Low73 °F (May 13, 2:30 am)62% (May 13, 3:00 pm)29.80 "Hg (May 19, 3:30 pm)
Average79 °F88%29.89 "Hg
* Reported May 12 12:00 am — May 27 12:00 am, Cayenne. Weather by CustomWeather, © 2019

Note: Actual official high and low records may vary slightly from our data, if they occured in-between our weather recording intervals... More about our weather records

Advertising

Cayenne Weather History for the Previous 24 Hours

Scroll right to see more
 ConditionsComfort  
Time TempWeatherWind HumidityBarometerVisibility
12:00 am
Mon, May 27
75 °FPassing clouds.No wind94%29.92 "HgN/A
11:30 pm
Sun, May 26
75 °FClear.No wind94%29.92 "Hg10 mi
11:00 pm77 °FPartly cloudy.No wind94%29.92 "HgN/A
10:00 pm77 °FPassing clouds.No wind94%29.92 "HgN/A
9:30 pm77 °FPassing clouds.No wind94%29.92 "HgN/A
9:00 pm77 °FClear.No wind94%29.89 "Hg10 mi
8:30 pm79 °FPassing clouds.No wind89%29.89 "HgN/A
8:00 pm79 °FPassing clouds.2 mph84%29.89 "HgN/A
7:30 pm79 °FPartly cloudy.5 mph84%29.86 "HgN/A
7:00 pm81 °FPassing clouds.3 mph79%29.86 "HgN/A
6:30 pm82 °FPassing clouds.7 mph74%29.86 "HgN/A
6:00 pm82 °FSunny.8 mph74%29.83 "Hg10 mi
5:30 pm82 °FPassing clouds.12 mph74%29.83 "HgN/A
5:00 pm84 °FPassing clouds.12 mph70%29.83 "HgN/A
4:30 pm84 °FPassing clouds.14 mph70%29.83 "HgN/A
3:30 pm86 °FScattered clouds.15 mph70%29.83 "HgN/A
3:00 pm88 °FScattered clouds.15 mph62%29.83 "HgN/A
2:30 pm88 °FPassing clouds.13 mph66%29.86 "HgN/A
2:00 pm88 °FPassing clouds.15 mph66%29.86 "HgN/A
1:30 pm88 °FPassing clouds.14 mph66%29.86 "HgN/A
1:00 pm90 °FPartly sunny.13 mph63%29.89 "HgN/A
12:30 pm88 °FPartly sunny.14 mph66%29.89 "HgN/A
12:00 pm88 °FScattered clouds.12 mph66%29.89 "HgN/A
11:30 am86 °FBroken clouds.13 mph70%29.92 "HgN/A
11:00 am86 °FBroken clouds.14 mph70%29.92 "HgN/A
10:30 am86 °FPassing clouds.10 mph70%29.92 "HgN/A
10:00 am86 °FPassing clouds.12 mph70%29.92 "HgN/A
9:30 am84 °FPassing clouds.10 mph74%29.92 "HgN/A
9:00 am84 °FPassing clouds.7 mph79%29.92 "HgN/A
8:30 am81 °FSunny.3 mph84%29.92 "Hg10 mi
8:00 am77 °FSunny.No wind94%29.89 "Hg10 mi
7:30 am75 °FSunny.No wind100%29.89 "Hg10 mi
7:00 am73 °FPassing clouds.No wind100%29.89 "HgN/A
6:30 am73 °FSunny.No wind94%29.89 "Hg10 mi
6:00 am73 °FPartly cloudy.No wind94%29.89 "HgN/A
5:30 am73 °FClear.No wind94%29.89 "Hg10 mi
5:00 am73 °FPassing clouds.No wind100%29.86 "HgN/A
4:30 am73 °FPassing clouds.No wind100%29.86 "HgN/A
4:00 am73 °FClear.No wind94%29.86 "Hg10 mi
3:30 am73 °FClear.No wind94%29.86 "Hg10 mi
3:00 am73 °FPassing clouds.No wind94%29.86 "HgN/A
2:30 am73 °FPassing clouds.No wind100%29.86 "HgN/A
2:00 am73 °FClear.No wind100%29.86 "Hg10 mi
1:30 am75 °FPassing clouds.No wind94%29.89 "HgN/A
1:00 am75 °FPassing clouds.No wind94%29.89 "HgN/A
Weather by CustomWeather, © 2019

See weather overview